User: anonymous   Login
Location: Unspecified
(0.0000°N, 0.0000°E)
Time: 00:25:50
(UTC+00:00)
Language:

FAISAT-2V - Orbit

View from above orbital plane
View from above orbital plane
View from above satellite
View from above satellite

Ground track
Ground track

The orbit data is extracted from the following two-line orbital elements,

1 24954U 97052B   18168.51896181 +.00000028 +00000-0 +12581-4 0  9991
2 24954 082.9223 013.4279 0038122 248.5902 137.4521 13.79970512044010
Epoch (UTC): 17 June 2018 12:27:18
Eccentricity: 0.0038122
inclination: 82.9223°
perigee height: 936 km
apogee height: 992 km
right ascension of ascending node: 13.4279°
argument of perigee: 248.5902°
revolutions per day: 13.79970512
mean anomaly at epoch: 137.4521°
orbit number at epoch: 4401

The dashed part of the orbit path shows where the satellite is in the earth's shadow,  

DLR